Mc Donough, Georgia, United States
Lat: 33.45N, Lon: 84.15W
Wx Zone: GAZ057
Local Info
Past Weather Observations for Today

NOTE: This archive is for the closest National Weather Service station to Mc Donough. Information may differ from the station used for current weather conditions.

Click here for Long-term Archive

Time Weather Temperature Dewpoint Humidity Pressure Winds Precip Visibility
13:52
Partly Cloudy
81°F / 27°C 68°F / 20°C 66% 30.15 in
(1021 mb)
E 10.4 mph
(E 17 kph)
- 10SM
12:52
Mostly Cloudy
79°F / 26°C 66°F / 19°C 65% 30.18 in
(1022 mb)
SE 8.1 mph
(SE 13 kph)
- 10SM
12:30
Mostly Cloudy
79°F / 26°C 66°F / 19°C 65% 30.18 in
(1022 mb)
SE 8.1 mph
(SE 13 kph)
- 10SM
11:59
Overcast
75°F / 24°C 66°F / 19°C 74% 30.18 in
(1022 mb)
E 16.1 mph
(E 26 kph)
- 10SM
11:52
Overcast
75°F / 24°C 66°F / 19°C 74% 30.18 in
(1022 mb)
E 13.8 mph
(E 22 kph)
- 9SM
10:59
Overcast
73°F / 23°C 68°F / 20°C 83% 30.18 in
(1022 mb)
E 12.7 mph
(E 20 kph)
- 9SM
10:52
Overcast
73°F / 23°C 68°F / 20°C 83% 30.18 in
(1022 mb)
E 12.7 mph
(E 20 kph)
- 8SM
09:59
Overcast
Hazy
73°F / 23°C 68°F / 20°C 83% 30.18 in
(1022 mb)
ENE 13.8 mph
(ENE 22 kph)
- 6SM
09:52
Overcast
Hazy
73°F / 23°C 68°F / 20°C 83% 30.18 in
(1022 mb)
E 12.7 mph
(E 20 kph)
- 6SM
08:52
Overcast
Hazy
73°F / 23°C 68°F / 20°C 83% 30.15 in
(1021 mb)
E 11.5 mph
(E 19 kph)
- 5SM
08:21
Overcast
Hazy
73°F / 23°C 68°F / 20°C 83% 30.15 in
(1021 mb)
E 10.4 mph
(E 17 kph)
- 5SM
07:52
Overcast
Fog And Mist
72°F / 22°C 68°F / 20°C 88% 30.15 in
(1021 mb)
ESE 9.2 mph
(ESE 15 kph)
- 4SM
07:38
Overcast
Fog And Mist
72°F / 22°C 68°F / 20°C 88% 30.12 in
(1020 mb)
E 10.4 mph
(E 17 kph)
- 4SM
06:52
Overcast
Fog And Mist
72°F / 22°C 66°F / 19°C 83% 30.12 in
(1020 mb)
E 10.4 mph
(E 17 kph)
- 6SM
06:09
Overcast
72°F / 22°C 66°F / 19°C 83% 30.09 in
(1019 mb)
E 9.2 mph
(E 15 kph)
- 9SM
05:52
Overcast
70°F / 21°C 66°F / 19°C 88% 30.09 in
(1019 mb)
E 9.2 mph
(E 15 kph)
- 9SM
05:08
Mostly Cloudy
70°F / 21°C 66°F / 19°C 88% 30.06 in
(1018 mb)
E 6.9 mph
(E 11 kph)
- 10SM
04:52
Partly Cloudy
70°F / 21°C 66°F / 19°C 88% 30.06 in
(1018 mb)
E 8.1 mph
(E 13 kph)
- 10SM
04:46
Mostly Cloudy
72°F / 22°C 66°F / 19°C 83% 30.06 in
(1018 mb)
E 10.4 mph
(E 17 kph)
- 10SM
03:52
Mostly Cloudy
72°F / 22°C 66°F / 19°C 83% 30.06 in
(1018 mb)
E 10.4 mph
(E 17 kph)
- 10SM
03:47
Mostly Cloudy
72°F / 22°C 66°F / 19°C 83% 30.06 in
(1018 mb)
E 8.1 mph
(E 13 kph)
- 10SM
02:52
Clear
72°F / 22°C 64°F / 18°C 78% 30.06 in
(1018 mb)
E 8.1 mph
(E 13 kph)
- 10SM
01:52
Partly Cloudy
72°F / 22°C 64°F / 18°C 78% 30.06 in
(1018 mb)
E 8.1 mph
(E 13 kph)
- 10SM
00:52
Partly Cloudy
72°F / 22°C 64°F / 18°C 78% 30.06 in
(1018 mb)
ENE 8.1 mph
(ENE 13 kph)
- 10SM
Time Weather Temperature Dewpoint Humidity Pressure Winds Precip Visibility


Weather for websites

WeatherForYou.com, LLC is not responsible for any damages or problems caused by this service. Current weather conditions are obtained from the closest station including government and personal stations which may have varying degrees of accuracy. Weather forecasts are derived from the NOAA NDFD. Like all things, this site belongs to Jesus Christ... He just trusts us to maintain it. If you have any questions or comments email webmaster@weatherforyou.com

Copyright © 2015, WeatherForYou.com LLC. All rights reserved.